Flag for Guatemala Weather past 2 weeks in Escuintla, Guatemala

Now
72 °F

Partly sunny.


Feels Like: 74 °F
Forecast: 68 / 90 °F
Wind: 5 mph from South

Location: Guatemala Aeropuertola Aurora

Current Time: Mar 27, 2015 at 10:05:51 AM

Latest Report: Mar 27, 2015 at 9:00 AM


Visibility: 4 mi

Pressure: 30.33 "Hg

Humidity: 73%

Dew point: 63 °F

Location of EscuintlaLocation

Historic Weather in Escuintla — Graph

°F

Escuintla temperature yesterday

Maximum temperature yesterday: 79 °F (at 12:00 PM)
Minimum temperature yesterday: 63 °F (at 1:00 AM)
Average temperature yesterday: 69 °F

Past Weeks' High & Low Weather Summary

 TemperatureHumidityPressure
High81 °F (Mar 12, 2:00 PM)100% (Mar 21, 7:00 PM)30.39 "Hg (Mar 21, 7:00 PM)
Low48 °F (Mar 21, 7:00 PM)34% (Mar 18, 1:00 PM)30.01 "Hg (Mar 21, 1:00 PM)
Average67 °F71%30.28 "Hg
* Reported Mar 12 9:00 AM — Mar 27 9:00 AM, Escuintla, Weather by CustomWeather, © 2015

Note: Actual official high and low records may vary slightly from our data, if they occured in-between our weather recording intervals... More about our weather records

Advertising

Escuintla weather history for previous 24 hours

 ConditionsComfort  
Time TempWeatherWind HumidityBarometerVisibility
9:00 AM
Fri, Mar 27
72 °FPartly sunny.5 mph73%30.33 "Hg4 mi
8:00 AM66 °FFog.No wind88%30.30 "Hg2 mi
7:00 AM63 °FFog.No wind94%30.27 "Hg1 mi
6:27 AMN/AFog.No windN/AN/A1 mi
6:00 AM63 °FFog.No wind94%30.24 "Hg2 mi
5:00 AM63 °FFog.No wind100%30.24 "Hg2 mi
4:00 AM64 °FFog.No wind94%30.24 "Hg2 mi
3:00 AM64 °FFog.No wind94%30.24 "Hg3 mi
2:00 AM64 °FFog.No wind94%30.24 "Hg3 mi
1:00 AM64 °FFog.No wind88%30.27 "Hg3 mi
12:00 AM64 °FFog.No wind88%30.27 "Hg3 mi
11:00 PM
Thu, Mar 26
66 °FFog.3 mph88%30.30 "Hg3 mi
10:00 PM66 °FFog.5 mph88%30.30 "Hg3 mi
9:00 PM66 °FFog.12 mph88%30.27 "Hg3 mi
8:00 PM66 °FPassing clouds.7 mph88%30.24 "Hg4 mi
7:00 PM66 °FPassing clouds.14 mph88%30.24 "Hg4 mi
6:00 PM70 °FScattered clouds.16 mph78%30.21 "Hg4 mi
5:00 PM73 °FPassing clouds.16 mph69%30.18 "Hg4 mi
4:00 PM75 °FPassing clouds.14 mph61%30.18 "Hg4 mi
3:00 PM77 °FPassing clouds.14 mph57%30.21 "Hg5 mi
2:00 PM79 °FPassing clouds.16 mph54%30.21 "Hg5 mi
1:00 PM79 °FPassing clouds.12 mph51%30.24 "Hg5 mi
12:00 PM79 °FScattered clouds.9 mph48%30.27 "Hg5 mi
11:00 AM77 °FPassing clouds.9 mph54%30.30 "Hg5 mi
10:00 AM75 °FPassing clouds.7 mph57%30.30 "Hg5 mi
Weather by CustomWeather, © 2015

See weather overviewHow to use our weather pages